Time,TemperatureF,DewpointF,PressureIn,WindDirection,WindDirectionDegrees,WindSpeedMPH,WindSpeedGustMPH,Humidity,HourlyPrecipIn,Conditions,Clouds,dailyrainin,SolarRadiationWatts/m^2,SoftwareType,DateUTC
2013-03-20 00:03:00,36.8,36.8,29.63,NE,48,5.8,5.8,100,0.00,RA,,0.00,0.0,WeatherDisplay:10.37,2013-03-20 00:03:00,
2013-03-20 00:09:00,36.8,36.8,29.63,NE,56,3.5,3.5,100,0.01,RA,,0.01,0.0,WeatherDisplay:10.37,2013-03-20 00:09:00,
2013-03-20 00:14:00,36.8,36.8,29.64,ENE,66,5.8,5.8,100,0.01,RA,,0.01,0.0,WeatherDisplay:10.37,2013-03-20 00:14:00,
2013-03-20 00:19:00,36.8,36.8,29.64,ENE,64,5.0,5.0,100,0.01,CLR,,0.01,0.0,WeatherDisplay:10.37,2013-03-20 00:19:00,
2013-03-20 00:24:00,36.8,36.8,29.64,NE,34,4.6,4.6,100,0.01,,,0.01,0.0,WeatherDisplay:10.37,2013-03-20 00:24:00,
2013-03-20 00:29:00,36.8,36.8,29.64,NE,42,3.5,3.5,100,0.01,,,0.01,0.0,WeatherDisplay:10.37,2013-03-20 00:29:00,
2013-03-20 00:34:00,36.8,36.8,29.65,NE,54,9.0,9.0,100,0.01,,,0.01,0.0,WeatherDisplay:10.37,2013-03-20 00:34:00,
2013-03-20 00:39:00,36.8,36.8,29.65,ENE,62,5.8,5.8,100,0.01,,,0.01,0.0,WeatherDisplay:10.37,2013-03-20 00:39:00,
2013-03-20 00:44:00,36.8,36.8,29.65,ENE,69,8.1,8.1,100,0.01,,,0.01,0.0,WeatherDisplay:10.37,2013-03-20 00:44:00,
2013-03-20 00:49:00,36.8,36.8,29.65,NE,52,6.9,6.9,100,0.01,,,0.01,0.0,WeatherDisplay:10.37,2013-03-20 00:49:00,
2013-03-20 00:55:00,36.8,36.8,29.65,ESE,116,4.6,4.6,100,0.01,,,0.01,0.0,WeatherDisplay:10.37,2013-03-20 00:55:00,
2013-03-20 01:00:00,36.8,36.8,29.65,NE,55,2.0,10.0,100,0.00,,,0.01,0.0,WeatherDisplay:10.37,2013-03-20 01:00:00,
2013-03-20 01:05:00,36.8,36.8,29.65,East,89,6.9,6.9,100,0.00,,,0.01,0.0,WeatherDisplay:10.37,2013-03-20 01:05:00,
2013-03-20 01:10:00,36.8,36.8,29.66,ENE,59,6.0,6.0,100,0.00,,,0.01,0.0,WeatherDisplay:10.37,2013-03-20 01:10:00,
2013-03-20 01:15:00,36.8,36.8,29.66,East,85,5.8,5.8,100,0.00,,,0.01,0.0,WeatherDisplay:10.37,2013-03-20 01:15:00,
2013-03-20 01:20:00,36.8,36.8,29.66,NE,44,5.8,5.8,100,0.00,,,0.01,0.0,WeatherDisplay:10.37,2013-03-20 01:20:00,
2013-03-20 01:25:00,36.8,36.8,29.66,NE,51,5.8,5.8,100,0.00,,,0.01,0.0,WeatherDisplay:10.37,2013-03-20 01:25:00,
2013-03-20 01:31:00,36.8,36.8,29.66,East,85,5.8,5.8,100,0.00,,,0.01,0.0,WeatherDisplay:10.37,2013-03-20 01:31:00,
2013-03-20 01:36:00,36.8,36.8,29.67,NE,51,4.6,4.6,100,0.00,,,0.01,0.0,WeatherDisplay:10.37,2013-03-20 01:36:00,
2013-03-20 01:41:00,36.8,36.8,29.67,East,82,6.0,6.0,100,0.00,,,0.01,0.0,WeatherDisplay:10.37,2013-03-20 01:41:00,
2013-03-20 01:47:00,36.8,36.8,29.67,ENE,78,5.8,5.8,100,0.00,,,0.01,0.0,WeatherDisplay:10.37,2013-03-20 01:47:00,
2013-03-20 01:52:00,36.8,36.8,29.67,NE,56,4.6,4.6,100,0.00,,,0.01,0.0,WeatherDisplay:10.37,2013-03-20 01:52:00,
2013-03-20 01:57:00,36.6,36.6,29.67,ENE,66,5.8,5.8,100,0.00,,,0.01,0.0,WeatherDisplay:10.37,2013-03-20 01:57:00,
2013-03-20 02:02:00,36.6,36.6,29.67,East,100,4.6,4.6,100,0.00,,,0.01,0.0,WeatherDisplay:10.37,2013-03-20 02:02:00,
2013-03-20 02:07:00,36.6,36.6,29.67,NE,45,4.6,4.6,100,0.00,,,0.01,0.0,WeatherDisplay:10.37,2013-03-20 02:07:00,
2013-03-20 02:13:00,36.5,36.5,29.67,ENE,71,3.5,3.5,100,0.00,,,0.01,0.0,WeatherDisplay:10.37,2013-03-20 02:13:00,
2013-03-20 02:18:00,36.5,36.5,29.67,NE,55,3.5,3.5,100,0.00,,,0.01,0.0,WeatherDisplay:10.37,2013-03-20 02:18:00,
2013-03-20 02:23:00,36.5,36.5,29.67,ENE,65,3.5,3.5,100,0.00,,,0.01,0.0,WeatherDisplay:10.37,2013-03-20 02:23:00,
2013-03-20 02:28:00,36.3,36.3,29.67,East,97,5.8,5.8,100,0.00,,,0.01,0.0,WeatherDisplay:10.37,2013-03-20 02:28:00,
2013-03-20 02:33:00,36.3,36.3,29.67,ENE,75,2.3,2.3,100,0.00,,,0.01,0.0,WeatherDisplay:10.37,2013-03-20 02:33:00,
2013-03-20 02:39:00,36.3,36.3,29.67,ENE,72,3.5,3.5,100,0.00,,,0.01,0.0,WeatherDisplay:10.37,2013-03-20 02:39:00,
2013-03-20 02:44:00,36.3,36.3,29.68,ENE,71,3.5,3.5,100,0.00,,,0.01,0.0,WeatherDisplay:10.37,2013-03-20 02:44:00,
2013-03-20 02:49:00,36.3,36.3,29.68,ESE,112,3.5,3.5,100,0.00,,,0.01,0.0,WeatherDisplay:10.37,2013-03-20 02:49:00,
2013-03-20 02:54:00,36.3,36.3,29.68,NE,49,3.5,3.5,100,0.00,,,0.01,0.0,WeatherDisplay:10.37,2013-03-20 02:54:00,
2013-03-20 02:59:00,36.3,36.3,29.68,East,82,3.5,3.5,100,0.00,,,0.01,0.0,WeatherDisplay:10.37,2013-03-20 02:59:00,
2013-03-20 03:04:00,36.3,36.3,29.68,ENE,61,4.6,4.6,100,0.00,,,0.01,0.0,WeatherDisplay:10.37,2013-03-20 03:04:00,
2013-03-20 03:09:00,36.3,36.3,29.68,ENE,68,3.5,3.5,100,0.00,,,0.01,0.0,WeatherDisplay:10.37,2013-03-20 03:09:00,
2013-03-20 03:14:00,36.3,36.3,29.68,ENE,72,2.3,2.3,100,0.00,,,0.01,0.0,WeatherDisplay:10.37,2013-03-20 03:14:00,
2013-03-20 03:19:00,36.3,36.3,29.68,ESE,119,6.0,6.0,100,0.00,,,0.01,0.0,WeatherDisplay:10.37,2013-03-20 03:19:00,
2013-03-20 03:24:00,36.3,36.3,29.68,East,92,4.6,4.6,100,0.00,,,0.01,0.0,WeatherDisplay:10.37,2013-03-20 03:24:00,
2013-03-20 03:29:00,36.3,36.3,29.68,East,95,5.8,5.8,100,0.00,,,0.01,0.0,WeatherDisplay:10.37,2013-03-20 03:29:00,
2013-03-20 03:35:00,36.3,36.3,29.68,East,82,4.6,4.6,100,0.00,,,0.01,0.0,WeatherDisplay:10.37,2013-03-20 03:35:00,
2013-03-20 03:40:00,36.3,36.3,29.68,ENE,75,3.5,3.5,100,0.00,,,0.01,0.0,WeatherDisplay:10.37,2013-03-20 03:40:00,
2013-03-20 03:45:00,36.3,36.3,29.68,East,86,4.6,4.6,100,0.00,,,0.01,0.0,WeatherDisplay:10.37,2013-03-20 03:45:00,
2013-03-20 03:50:00,36.3,36.3,29.68,ESE,106,6.0,6.0,100,0.00,,,0.01,0.0,WeatherDisplay:10.37,2013-03-20 03:50:00,
2013-03-20 03:55:00,36.3,36.3,29.69,East,99,5.8,5.8,100,0.00,,,0.01,0.0,WeatherDisplay:10.37,2013-03-20 03:55:00,
2013-03-20 04:00:00,36.3,36.3,29.69,East,85,5.8,5.8,100,0.00,,,0.01,0.0,WeatherDisplay:10.37,2013-03-20 04:00:00,
2013-03-20 04:01:00,36.3,36.3,29.69,East,92,2.3,2.3,100,0.00,,,0.01,0.0,WeatherDisplay:10.37,2013-03-20 04:01:00,
2013-03-20 04:06:00,36.3,36.3,29.69,NE,54,6.9,6.9,100,0.00,,,0.01,0.0,WeatherDisplay:10.37,2013-03-20 04:06:00,
2013-03-20 04:11:00,36.3,36.3,29.69,ENE,59,3.5,3.5,100,0.00,,,0.01,0.0,WeatherDisplay:10.37,2013-03-20 04:11:00,
2013-03-20 04:16:00,36.3,36.3,29.69,ENE,68,8.1,8.1,100,0.00,,,0.01,0.0,WeatherDisplay:10.37,2013-03-20 04:16:00,
2013-03-20 04:22:00,36.3,36.3,29.70,East,90,4.6,4.6,100,0.00,,,0.01,0.0,WeatherDisplay:10.37,2013-03-20 04:22:00,
2013-03-20 04:27:00,36.3,36.3,29.70,ESE,116,3.5,3.5,100,0.00,,,0.01,0.0,WeatherDisplay:10.37,2013-03-20 04:27:00,
2013-03-20 04:32:00,36.2,36.2,29.70,East,82,3.5,3.5,100,0.00,,,0.01,0.0,WeatherDisplay:10.37,2013-03-20 04:32:00,
2013-03-20 04:37:00,36.2,36.2,29.70,East,86,3.5,3.5,100,0.00,,,0.01,0.0,WeatherDisplay:10.37,2013-03-20 04:37:00,
2013-03-20 04:42:00,36.0,36.0,29.70,ENE,78,3.5,3.5,100,0.00,,,0.01,0.0,WeatherDisplay:10.37,2013-03-20 04:42:00,
2013-03-20 04:47:00,36.0,36.0,29.70,ENE,68,2.3,2.3,100,0.00,,,0.01,0.0,WeatherDisplay:10.37,2013-03-20 04:47:00,
2013-03-20 04:52:00,36.0,36.0,29.70,ENE,65,4.6,4.6,100,0.00,,,0.01,0.0,WeatherDisplay:10.37,2013-03-20 04:52:00,
2013-03-20 04:57:00,36.0,36.0,29.70,East,92,3.5,3.5,100,0.00,,,0.01,0.0,WeatherDisplay:10.37,2013-03-20 04:57:00,
2013-03-20 05:03:00,36.0,36.0,29.71,ENE,66,5.8,5.8,100,0.00,,,0.01,0.0,WeatherDisplay:10.37,2013-03-20 05:03:00,
2013-03-20 05:08:00,36.0,36.0,29.71,East,96,9.2,9.2,100,0.00,,,0.01,0.0,WeatherDisplay:10.37,2013-03-20 05:08:00,
2013-03-20 05:13:00,36.0,36.0,29.71,ENE,59,5.8,5.8,100,0.00,,,0.01,0.0,WeatherDisplay:10.37,2013-03-20 05:13:00,
2013-03-20 05:18:00,36.0,36.0,29.71,NE,47,4.6,4.6,100,0.00,,,0.01,0.0,WeatherDisplay:10.37,2013-03-20 05:18:00,
2013-03-20 05:23:00,36.0,36.0,29.71,East,80,5.8,5.8,100,0.00,,,0.01,0.0,WeatherDisplay:10.37,2013-03-20 05:23:00,
2013-03-20 05:28:00,36.0,36.0,29.72,NE,49,3.5,3.5,100,0.00,,,0.01,0.0,WeatherDisplay:10.37,2013-03-20 05:28:00,
2013-03-20 05:33:00,35.9,35.9,29.72,East,97,4.6,4.6,100,0.00,,,0.01,0.0,WeatherDisplay:10.37,2013-03-20 05:33:00,
2013-03-20 05:39:00,35.8,35.8,29.72,East,99,5.0,5.0,100,0.00,,,0.01,0.0,WeatherDisplay:10.37,2013-03-20 05:39:00,
2013-03-20 05:44:00,35.8,35.8,29.72,NE,37,5.8,5.8,100,0.00,,,0.01,0.0,WeatherDisplay:10.37,2013-03-20 05:44:00,
2013-03-20 05:49:00,35.6,35.6,29.72,NNE,25,6.0,6.0,100,0.00,,,0.01,0.0,WeatherDisplay:10.37,2013-03-20 05:49:00,
2013-03-20 05:54:00,35.6,35.6,29.72,East,88,3.5,3.5,100,0.00,,,0.01,0.0,WeatherDisplay:10.37,2013-03-20 05:54:00,
2013-03-20 05:59:00,35.6,35.6,29.73,ENE,66,4.6,4.6,100,0.00,,,0.01,0.0,WeatherDisplay:10.37,2013-03-20 05:59:00,
2013-03-20 06:05:00,35.5,35.5,29.73,East,93,4.6,4.6,100,0.00,OVC,,0.01,0.0,WeatherDisplay:10.37,2013-03-20 06:05:00,
2013-03-20 06:10:00,35.6,35.6,29.73,ENE,78,5.8,5.8,100,0.00,OVC,,0.01,0.0,WeatherDisplay:10.37,2013-03-20 06:10:00,
2013-03-20 06:15:00,35.6,35.6,29.73,East,83,3.5,3.5,100,0.00,OVC,,0.01,0.0,WeatherDisplay:10.37,2013-03-20 06:15:00,
2013-03-20 06:20:00,35.5,35.5,29.73,East,83,2.3,2.3,100,0.00,OVC,,0.01,5.0,WeatherDisplay:10.37,2013-03-20 06:20:00,
2013-03-20 06:26:00,35.5,35.5,29.73,North,0,3.5,3.5,100,0.00,OVC,,0.01,5.0,WeatherDisplay:10.37,2013-03-20 06:26:00,
2013-03-20 06:31:00,35.6,35.6,29.73,ENE,62,4.6,4.6,100,0.00,OVC,,0.01,5.0,WeatherDisplay:10.37,2013-03-20 06:31:00,
2013-03-20 06:36:00,35.6,35.6,29.74,East,86,4.6,4.6,100,0.00,SCT,,0.01,7.0,WeatherDisplay:10.37,2013-03-20 06:36:00,
2013-03-20 06:41:00,35.6,35.6,29.74,East,92,3.5,3.5,100,0.00,BKN,,0.01,9.0,WeatherDisplay:10.37,2013-03-20 06:41:00,
2013-03-20 06:46:00,35.6,35.6,29.74,ESE,112,3.5,3.5,100,0.00,BKN,,0.01,11.0,WeatherDisplay:10.37,2013-03-20 06:46:00,
2013-03-20 06:52:00,35.5,35.5,29.74,East,82,3.5,3.5,100,0.00,BKN,,0.01,16.0,WeatherDisplay:10.37,2013-03-20 06:52:00,
2013-03-20 06:57:00,35.5,35.5,29.75,East,85,1.2,1.2,100,0.00,OVC,,0.01,12.0,WeatherDisplay:10.37,2013-03-20 06:57:00,
2013-03-20 07:02:00,35.5,35.5,29.75,East,82,3.5,3.5,100,0.00,OVC,,0.01,21.0,WeatherDisplay:10.37,2013-03-20 07:02:00,
2013-03-20 07:07:00,35.6,35.6,29.75,NE,49,3.5,3.5,100,0.00,BKN,,0.01,26.0,WeatherDisplay:10.37,2013-03-20 07:07:00,
2013-03-20 07:12:00,35.6,35.6,29.75,East,88,5.8,5.8,100,0.00,BKN,,0.01,33.0,WeatherDisplay:10.37,2013-03-20 07:12:00,
2013-03-20 07:17:00,35.6,35.6,29.75,ESE,102,3.5,3.5,100,0.00,BKN,,0.01,39.0,WeatherDisplay:10.37,2013-03-20 07:17:00,
2013-03-20 07:22:00,35.8,35.8,29.76,NE,54,3.5,3.5,100,0.00,BKN,,0.01,40.0,WeatherDisplay:10.37,2013-03-20 07:22:00,
2013-03-20 07:27:00,35.8,35.8,29.76,East,100,3.5,3.5,100,0.00,OVC,,0.01,35.0,WeatherDisplay:10.37,2013-03-20 07:27:00,
2013-03-20 07:33:00,35.8,35.8,29.76,NE,55,5.0,5.0,100,0.00,OVC,,0.01,39.0,WeatherDisplay:10.37,2013-03-20 07:33:00,
2013-03-20 07:38:00,35.8,35.8,29.76,East,82,3.5,3.5,100,0.00,OVC,,0.01,42.0,WeatherDisplay:10.37,2013-03-20 07:38:00,
2013-03-20 07:43:00,35.9,35.9,29.76,ENE,78,3.5,3.5,100,0.00,OVC,,0.01,42.0,WeatherDisplay:10.37,2013-03-20 07:43:00,
2013-03-20 07:48:00,35.9,35.9,29.76,ENE,66,3.5,3.5,100,0.00,OVC,,0.01,46.0,WeatherDisplay:10.37,2013-03-20 07:48:00,
2013-03-20 07:53:00,36.0,36.0,29.76,East,92,3.5,3.5,100,0.00,OVC,,0.01,48.0,WeatherDisplay:10.37,2013-03-20 07:53:00,
2013-03-20 07:58:00,36.0,36.0,29.76,NE,37,5.8,5.8,100,0.00,OVC,,0.01,55.0,WeatherDisplay:10.37,2013-03-20 07:58:00,
2013-03-20 08:03:00,36.2,36.2,29.76,ENE,64,4.6,4.6,100,0.00,OVC,,0.01,55.0,WeatherDisplay:10.37,2013-03-20 08:03:00,
2013-03-20 08:09:00,36.2,36.2,29.77,ENE,69,2.3,2.3,100,0.00,OVC,,0.01,55.0,WeatherDisplay:10.37,2013-03-20 08:09:00,
2013-03-20 08:14:00,36.3,36.3,29.77,NE,47,4.6,4.6,100,0.00,OVC,,0.01,62.0,WeatherDisplay:10.37,2013-03-20 08:14:00,
2013-03-20 08:19:00,36.3,36.3,29.77,East,96,3.5,3.5,100,0.00,OVC,,0.01,63.0,WeatherDisplay:10.37,2013-03-20 08:19:00,
2013-03-20 08:24:00,36.5,36.5,29.77,NE,51,5.8,5.8,100,0.00,OVC,,0.01,74.0,WeatherDisplay:10.37,2013-03-20 08:24:00,
2013-03-20 08:29:00,36.5,36.5,29.77,East,89,6.9,6.9,100,0.00,OVC,,0.01,77.0,WeatherDisplay:10.37,2013-03-20 08:29:00,
2013-03-20 08:35:00,36.6,36.6,29.77,East,80,3.5,3.5,100,0.00,BKN,,0.01,97.0,WeatherDisplay:10.37,2013-03-20 08:35:00,
2013-03-20 08:40:00,36.8,36.8,29.78,NE,56,5.8,5.8,100,0.00,BKN,,0.01,116.0,WeatherDisplay:10.37,2013-03-20 08:40:00,
2013-03-20 08:45:00,37.0,37.0,29.78,ENE,77,3.0,7.0,100,0.00,BKN,,0.01,121.0,WeatherDisplay:10.37,2013-03-20 08:45:00,
2013-03-20 08:50:00,37.3,37.3,29.78,NE,55,5.8,5.8,100,0.00,BKN,,0.01,127.0,WeatherDisplay:10.37,2013-03-20 08:50:00,
2013-03-20 08:55:00,37.5,37.5,29.78,East,93,4.6,4.6,100,0.00,BKN,,0.01,128.0,WeatherDisplay:10.37,2013-03-20 08:55:00,
2013-03-20 09:00:00,37.8,37.8,29.79,NE,55,3.5,3.5,100,0.00,BKN,,0.01,151.0,WeatherDisplay:10.37,2013-03-20 09:00:00,
2013-03-20 09:05:00,37.9,37.9,29.79,ESE,102,5.0,5.0,100,0.00,BKN,,0.01,128.0,WeatherDisplay:10.37,2013-03-20 09:05:00,
2013-03-20 09:11:00,37.9,37.9,29.79,ENE,62,11.5,11.5,100,0.00,BKN,,0.01,143.0,WeatherDisplay:10.37,2013-03-20 09:11:00,
2013-03-20 09:16:00,38.0,38.0,29.79,East,88,6.9,6.9,100,0.00,BKN,,0.01,158.0,WeatherDisplay:10.37,2013-03-20 09:16:00,
2013-03-20 09:21:00,38.0,38.0,29.79,East,82,8.1,8.1,100,0.00,BKN,,0.01,158.0,WeatherDisplay:10.37,2013-03-20 09:21:00,
2013-03-20 09:26:00,38.3,38.3,29.80,NE,37,6.9,6.9,100,0.00,BKN,,0.01,132.0,WeatherDisplay:10.37,2013-03-20 09:26:00,
2013-03-20 09:32:00,38.3,38.3,29.80,East,99,5.8,5.8,100,0.00,BKN,,0.01,132.0,WeatherDisplay:10.37,2013-03-20 09:32:00,
2013-03-20 09:37:00,38.5,38.5,29.80,SE,128,10.0,10.0,100,0.00,OVC,,0.01,130.0,WeatherDisplay:10.37,2013-03-20 09:37:00,
2013-03-20 09:42:00,38.5,38.5,29.81,ESE,117,8.1,8.1,100,0.00,BKN,,0.01,151.0,WeatherDisplay:10.37,2013-03-20 09:42:00,
2013-03-20 09:47:00,38.6,38.6,29.81,ENE,58,6.9,6.9,100,0.00,BKN,,0.01,144.0,WeatherDisplay:10.37,2013-03-20 09:47:00,
2013-03-20 09:52:00,38.6,38.6,29.81,East,82,10.4,10.4,100,0.00,OVC,,0.01,141.0,WeatherDisplay:10.37,2013-03-20 09:52:00,
2013-03-20 09:57:00,38.8,38.8,29.81,ESE,113,7.0,7.0,100,0.00,OVC,,0.01,148.0,WeatherDisplay:10.37,2013-03-20 09:57:00,
2013-03-20 10:02:00,38.8,38.8,29.81,ESE,102,11.5,11.5,100,0.00,BKN,,0.01,157.0,WeatherDisplay:10.37,2013-03-20 10:02:00,
2013-03-20 10:07:00,38.8,38.8,29.82,East,100,11.5,11.5,100,0.00,BKN,,0.01,187.0,WeatherDisplay:10.37,2013-03-20 10:07:00,
2013-03-20 10:13:00,39.1,39.1,29.82,East,80,8.1,8.1,100,0.00,BKN,,0.01,188.0,WeatherDisplay:10.37,2013-03-20 10:13:00,
2013-03-20 10:18:00,39.3,39.0,29.82,ESE,107,6.9,6.9,99,0.00,BKN,,0.01,187.0,WeatherDisplay:10.37,2013-03-20 10:18:00,
2013-03-20 10:23:00,39.8,39.8,29.82,East,100,4.6,4.6,100,0.00,BKN,,0.01,187.0,WeatherDisplay:10.37,2013-03-20 10:23:00,
2013-03-20 10:28:00,39.6,39.3,29.82,East,92,4.6,4.6,99,0.00,OVC,,0.01,144.0,WeatherDisplay:10.37,2013-03-20 10:28:00,
2013-03-20 10:33:00,39.6,39.3,29.82,East,90,8.1,8.1,99,0.00,OVC,,0.01,128.0,WeatherDisplay:10.37,2013-03-20 10:33:00,
2013-03-20 10:38:00,39.6,39.3,29.83,ENE,71,10.4,10.4,99,0.00,OVC,,0.01,130.0,WeatherDisplay:10.37,2013-03-20 10:38:00,
2013-03-20 10:44:00,39.5,39.0,29.83,ESE,113,12.7,12.7,98,0.00,OVC,,0.01,153.0,WeatherDisplay:10.37,2013-03-20 10:44:00,
2013-03-20 10:49:00,39.3,38.5,29.83,ESE,106,9.2,9.2,97,0.00,OVC,,0.01,143.0,WeatherDisplay:10.37,2013-03-20 10:49:00,
2013-03-20 10:54:00,39.6,38.8,29.83,East,88,6.9,6.9,97,0.00,OVC,,0.01,160.0,WeatherDisplay:10.37,2013-03-20 10:54:00,
2013-03-20 10:59:00,39.6,38.8,29.83,ESE,116,5.8,5.8,97,0.00,OVC,,0.01,151.0,WeatherDisplay:10.37,2013-03-20 10:59:00,
2013-03-20 11:05:00,39.9,39.1,29.83,East,93,8.1,8.1,97,0.00,OVC,,0.01,128.0,WeatherDisplay:10.37,2013-03-20 11:05:00,
2013-03-20 11:10:00,39.6,38.6,29.83,SE,124,7.0,7.0,96,0.00,OVC,,0.01,165.0,WeatherDisplay:10.37,2013-03-20 11:10:00,
2013-03-20 11:15:00,39.9,38.9,29.84,ENE,59,9.2,9.2,96,0.00,BKN,,0.01,192.0,WeatherDisplay:10.37,2013-03-20 11:15:00,
2013-03-20 11:20:00,39.9,38.6,29.84,SE,124,6.9,6.9,95,0.00,BKN,,0.01,195.0,WeatherDisplay:10.37,2013-03-20 11:20:00,
2013-03-20 11:26:00,40.2,38.9,29.84,East,100,8.1,8.1,95,0.00,OVC,,0.01,187.0,WeatherDisplay:10.37,2013-03-20 11:26:00,
2013-03-20 11:31:00,40.1,38.8,29.84,ESE,121,7.0,7.0,95,0.00,OVC,,0.01,188.0,WeatherDisplay:10.37,2013-03-20 11:31:00,
2013-03-20 11:37:00,39.9,38.3,29.84,East,90,11.5,11.5,94,0.00,OVC,,0.01,187.0,WeatherDisplay:10.37,2013-03-20 11:37:00,
2013-03-20 11:42:00,39.9,38.3,29.85,East,99,7.0,7.0,94,0.00,OVC,,0.01,187.0,WeatherDisplay:10.37,2013-03-20 11:42:00,
2013-03-20 11:47:00,39.9,38.3,29.85,East,96,10.4,10.4,94,0.00,OVC,,0.01,171.0,WeatherDisplay:10.37,2013-03-20 11:47:00,
2013-03-20 11:52:00,40.1,38.5,29.85,East,90,5.8,5.8,94,0.00,OVC,,0.01,194.0,WeatherDisplay:10.37,2013-03-20 11:52:00,
2013-03-20 11:57:00,40.2,38.6,29.85,East,93,7.0,7.0,94,0.00,OVC,,0.01,158.0,WeatherDisplay:10.37,2013-03-20 11:57:00,
2013-03-20 12:02:00,40.2,38.3,29.85,ESE,119,11.5,11.5,93,0.00,BKN,,0.01,195.0,WeatherDisplay:10.37,2013-03-20 12:02:00,
2013-03-20 12:07:00,40.3,38.4,29.85,SSE,160,12.7,12.7,93,0.00,OVC,,0.01,201.0,WeatherDisplay:10.37,2013-03-20 12:07:00,
2013-03-20 12:12:00,40.3,38.2,29.86,East,92,7.0,7.0,92,0.00,OVC,,0.01,162.0,WeatherDisplay:10.37,2013-03-20 12:12:00,
2013-03-20 12:18:00,40.3,38.2,29.86,ESE,119,11.5,11.5,92,0.00,OVC,,0.01,162.0,WeatherDisplay:10.37,2013-03-20 12:18:00,
2013-03-20 12:23:00,40.1,38.0,29.86,East,83,11.5,11.5,92,0.00,OVC,,0.01,172.0,WeatherDisplay:10.37,2013-03-20 12:23:00,
2013-03-20 12:28:00,40.2,37.8,29.86,East,88,7.0,7.0,91,0.00,OVC,,0.01,185.0,WeatherDisplay:10.37,2013-03-20 12:28:00,
2013-03-20 12:33:00,40.1,37.4,29.87,SE,127,10.4,10.4,90,0.00,OVC,,0.01,209.0,WeatherDisplay:10.37,2013-03-20 12:33:00,
2013-03-20 12:39:00,40.3,37.6,29.87,ESE,106,11.5,11.5,90,0.00,BKN,,0.01,220.0,WeatherDisplay:10.37,2013-03-20 12:39:00,
2013-03-20 12:44:00,40.5,37.5,29.87,East,83,11.5,11.5,89,0.00,OVC,,0.01,157.0,WeatherDisplay:10.37,2013-03-20 12:44:00,
2013-03-20 12:49:00,40.3,37.6,29.87,SE,144,10.4,10.4,90,0.00,BKN,,0.01,213.0,WeatherDisplay:10.37,2013-03-20 12:49:00,
2013-03-20 12:54:00,40.6,37.6,29.87,SE,137,8.1,8.1,89,0.00,SCT,,0.01,340.0,WeatherDisplay:10.37,2013-03-20 12:54:00,
2013-03-20 12:59:00,41.2,37.9,29.87,East,90,10.4,10.4,88,0.00,SCT,,0.01,273.0,WeatherDisplay:10.37,2013-03-20 12:59:00,
2013-03-20 13:05:00,41.2,37.9,29.87,ESE,104,11.5,11.5,88,0.00,BKN,,0.01,213.0,WeatherDisplay:10.37,2013-03-20 13:05:00,
2013-03-20 13:10:00,41.1,37.8,29.87,East,90,11.5,11.5,88,0.00,OVC,,0.01,135.0,WeatherDisplay:10.37,2013-03-20 13:10:00,
2013-03-20 13:15:00,40.8,37.8,29.87,ESE,117,13.0,13.0,89,0.00,OVC,,0.01,137.0,WeatherDisplay:10.37,2013-03-20 13:15:00,
2013-03-20 13:20:00,40.5,37.5,29.88,ESE,120,10.4,10.4,89,0.00,OVC,,0.01,135.0,WeatherDisplay:10.37,2013-03-20 13:20:00,
2013-03-20 13:25:00,40.3,37.3,29.88,East,99,11.5,11.5,89,0.00,OVC,,0.01,185.0,WeatherDisplay:10.37,2013-03-20 13:25:00,
2013-03-20 13:30:00,40.3,37.6,29.88,SSE,147,11.5,11.5,90,0.00,BKN,,0.01,216.0,WeatherDisplay:10.37,2013-03-20 13:30:00,
2013-03-20 13:35:00,40.6,37.9,29.88,SSE,155,11.5,11.5,90,0.00,OVC,,0.01,164.0,WeatherDisplay:10.37,2013-03-20 13:35:00,
2013-03-20 13:41:00,40.8,38.4,29.88,East,97,11.5,11.5,91,0.00,BKN,,0.01,204.0,WeatherDisplay:10.37,2013-03-20 13:41:00,
2013-03-20 13:46:00,40.8,37.8,29.88,ESE,116,11.5,11.5,89,0.00,BKN,,0.01,194.0,WeatherDisplay:10.37,2013-03-20 13:46:00,
2013-03-20 13:51:00,40.9,37.9,29.88,East,83,11.5,11.5,89,0.00,OVC,,0.01,148.0,WeatherDisplay:10.37,2013-03-20 13:51:00,
2013-03-20 13:56:00,40.8,37.8,29.88,SE,124,11.5,11.5,89,0.00,BKN,,0.01,190.0,WeatherDisplay:10.37,2013-03-20 13:56:00,
2013-03-20 14:02:00,40.6,37.6,29.88,ESE,104,12.7,12.7,89,0.00,OVC,,0.01,141.0,WeatherDisplay:10.37,2013-03-20 14:02:00,
2013-03-20 14:07:00,40.5,37.5,29.88,East,92,8.1,8.1,89,0.00,BKN,,0.01,188.0,WeatherDisplay:10.37,2013-03-20 14:07:00,
2013-03-20 14:12:00,40.6,37.6,29.89,East,82,11.5,11.5,89,0.00,SCT,,0.01,262.0,WeatherDisplay:10.37,2013-03-20 14:12:00,
2013-03-20 14:17:00,41.1,38.1,29.89,East,79,11.5,11.5,89,0.00,SCT,,0.01,297.0,WeatherDisplay:10.37,2013-03-20 14:17:00,
2013-03-20 14:22:00,41.3,38.0,29.89,East,89,6.9,6.9,88,0.00,SCT,,0.01,262.0,WeatherDisplay:10.37,2013-03-20 14:22:00,
2013-03-20 14:27:00,41.3,37.4,29.89,SSE,148,11.5,11.5,86,0.00,SCT,,0.01,227.0,WeatherDisplay:10.37,2013-03-20 14:27:00,
2013-03-20 14:32:00,41.2,37.3,29.89,ENE,72,13.8,13.8,86,0.00,BKN,,0.01,238.0,WeatherDisplay:10.37,2013-03-20 14:32:00,
2013-03-20 14:38:00,41.2,37.0,29.89,SE,140,11.5,11.5,85,0.00,SCT,,0.01,283.0,WeatherDisplay:10.37,2013-03-20 14:38:00,
2013-03-20 14:43:00,41.5,37.6,29.89,SE,145,10.4,10.4,86,0.00,SCT,,0.01,278.0,WeatherDisplay:10.37,2013-03-20 14:43:00,
2013-03-20 14:48:00,41.6,37.4,29.89,ENE,73,11.5,11.5,85,0.00,SCT,,0.01,253.0,WeatherDisplay:10.37,2013-03-20 14:48:00,
2013-03-20 14:53:00,41.8,37.9,29.89,ENE,72,10.4,10.4,86,0.00,SCT,,0.01,236.0,WeatherDisplay:10.37,2013-03-20 14:53:00,
2013-03-20 14:58:00,41.6,37.4,29.89,East,96,10.4,10.4,85,0.00,SCT,,0.01,211.0,WeatherDisplay:10.37,2013-03-20 14:58:00,
2013-03-20 15:03:00,41.1,36.6,29.90,East,93,13.8,13.8,84,0.00,BKN,,0.01,169.0,WeatherDisplay:10.37,2013-03-20 15:03:00,
2013-03-20 15:09:00,40.9,36.7,29.90,SE,138,11.5,11.5,85,0.00,SCT,,0.01,204.0,WeatherDisplay:10.37,2013-03-20 15:09:00,
2013-03-20 15:14:00,40.9,36.4,29.90,ESE,110,11.5,11.5,84,0.00,OVC,,0.01,102.0,WeatherDisplay:10.37,2013-03-20 15:14:00,
2013-03-20 15:19:00,40.8,36.6,29.90,East,80,10.4,10.4,85,0.00,OVC,,0.01,58.0,WeatherDisplay:10.37,2013-03-20 15:19:00,
2013-03-20 15:24:00,40.5,36.6,29.91,East,85,12.0,12.0,86,0.00,OVC,,0.01,86.0,WeatherDisplay:10.37,2013-03-20 15:24:00,
2013-03-20 15:29:00,40.3,36.4,29.91,ESE,104,8.1,8.1,86,0.00,BKN,,0.01,148.0,WeatherDisplay:10.37,2013-03-20 15:29:00,
2013-03-20 15:34:00,40.3,36.7,29.91,ESE,103,10.4,10.4,87,0.00,SCT,,0.01,202.0,WeatherDisplay:10.37,2013-03-20 15:34:00,
2013-03-20 15:40:00,40.6,37.0,29.91,East,96,11.5,11.5,87,0.00,BKN,,0.01,160.0,WeatherDisplay:10.37,2013-03-20 15:40:00,
2013-03-20 15:45:00,40.6,37.0,29.91,ESE,104,7.0,12.0,87,0.00,OVC,,0.01,99.0,WeatherDisplay:10.37,2013-03-20 15:45:00,
2013-03-20 15:50:00,40.5,36.6,29.91,ESE,104,10.4,10.4,86,0.00,OVC,,0.01,74.0,WeatherDisplay:10.37,2013-03-20 15:50:00,
2013-03-20 15:55:00,40.2,36.3,29.91,East,100,11.5,11.5,86,0.00,OVC,,0.01,97.0,WeatherDisplay:10.37,2013-03-20 15:55:00,
2013-03-20 16:00:00,40.1,35.7,29.91,ESE,107,8.0,13.0,84,0.00,BKN,,0.01,109.0,WeatherDisplay:10.37,2013-03-20 16:00:00,
2013-03-20 16:05:00,40.1,35.7,29.91,ESE,116,12.0,12.0,84,0.00,BKN,,0.01,100.0,WeatherDisplay:10.37,2013-03-20 16:05:00,
2013-03-20 16:10:00,39.8,35.4,29.91,ESE,112,11.5,11.5,84,0.00,OVC,,0.01,72.0,WeatherDisplay:10.37,2013-03-20 16:10:00,
2013-03-20 16:15:00,39.6,35.5,29.91,ESE,110,10.4,10.4,85,0.00,OVC,,0.01,63.0,WeatherDisplay:10.37,2013-03-20 16:15:00,
2013-03-20 16:21:00,39.3,35.2,29.92,East,93,11.5,11.5,85,0.00,OVC,,0.01,67.0,WeatherDisplay:10.37,2013-03-20 16:21:00,
2013-03-20 16:27:00,39.2,35.1,29.92,ESE,106,10.4,10.4,85,0.00,BKN,,0.01,102.0,WeatherDisplay:10.37,2013-03-20 16:27:00,
2013-03-20 16:32:00,39.3,34.9,29.92,ESE,107,10.4,10.4,84,0.00,BKN,,0.01,107.0,WeatherDisplay:10.37,2013-03-20 16:32:00,
2013-03-20 16:37:00,39.5,34.8,29.92,ESE,109,11.5,11.5,83,0.00,BKN,,0.01,81.0,WeatherDisplay:10.37,2013-03-20 16:37:00,
2013-03-20 16:42:00,39.5,34.8,29.93,East,88,11.5,11.5,83,0.00,BKN,,0.01,97.0,WeatherDisplay:10.37,2013-03-20 16:42:00,
2013-03-20 16:47:00,39.5,35.1,29.93,SE,133,10.4,10.4,84,0.00,BKN,,0.01,67.0,WeatherDisplay:10.37,2013-03-20 16:47:00,
2013-03-20 16:53:00,39.3,34.9,29.93,East,93,10.4,10.4,84,0.00,BKN,,0.01,83.0,WeatherDisplay:10.37,2013-03-20 16:53:00,
2013-03-20 16:58:00,39.2,35.1,29.93,East,99,12.7,12.7,85,0.00,SCT,,0.01,102.0,WeatherDisplay:10.37,2013-03-20 16:58:00,
2013-03-20 17:03:00,39.3,35.5,29.93,ENE,71,10.4,10.4,86,0.00,SCT,,0.01,100.0,WeatherDisplay:10.37,2013-03-20 17:03:00,
2013-03-20 17:08:00,39.3,35.5,29.93,East,86,8.1,8.1,86,0.00,SCT,,0.01,83.0,WeatherDisplay:10.37,2013-03-20 17:08:00,
2013-03-20 17:13:00,39.5,35.7,29.93,East,90,6.0,6.0,86,0.00,SCT,,0.01,69.0,WeatherDisplay:10.37,2013-03-20 17:13:00,
2013-03-20 17:18:00,39.5,36.0,29.94,NE,49,16.1,16.1,87,0.00,BKN,,0.01,48.0,WeatherDisplay:10.37,2013-03-20 17:18:00,
2013-03-20 17:23:00,39.2,35.7,29.94,East,90,10.4,10.4,87,0.00,BKN,,0.01,49.0,WeatherDisplay:10.37,2013-03-20 17:23:00,
2013-03-20 17:28:00,38.9,35.4,29.94,East,99,10.4,10.4,87,0.00,BKN,,0.01,40.0,WeatherDisplay:10.37,2013-03-20 17:28:00,
2013-03-20 17:33:00,38.6,35.4,29.95,ENE,75,10.4,10.4,88,0.00,BKN,,0.01,33.0,WeatherDisplay:10.37,2013-03-20 17:33:00,
2013-03-20 17:38:00,38.3,35.1,29.95,East,85,11.0,11.0,88,0.00,OVC,,0.01,26.0,WeatherDisplay:10.37,2013-03-20 17:38:00,
2013-03-20 17:43:00,38.0,35.0,29.95,East,80,4.0,4.0,89,0.00,BKN,,0.01,28.0,WeatherDisplay:10.37,2013-03-20 17:43:00,
2013-03-20 17:49:00,37.9,34.9,29.95,East,99,6.9,6.9,89,0.00,BKN,,0.01,25.0,WeatherDisplay:10.37,2013-03-20 17:49:00,
2013-03-20 17:54:00,37.6,34.7,29.96,East,82,3.5,3.5,89,0.00,BKN,,0.01,21.0,WeatherDisplay:10.37,2013-03-20 17:54:00,
2013-03-20 17:59:00,37.5,34.6,29.96,East,100,7.0,7.0,89,0.00,SCT,,0.01,19.0,WeatherDisplay:10.37,2013-03-20 17:59:00,
2013-03-20 18:04:00,37.2,34.5,29.96,SE,141,5.0,5.0,90,0.00,SCT,,0.01,18.0,WeatherDisplay:10.37,2013-03-20 18:04:00,
2013-03-20 18:09:00,37.0,34.3,29.96,East,96,6.9,6.9,90,0.00,FEW,,0.01,16.0,WeatherDisplay:10.37,2013-03-20 18:09:00,
2013-03-20 18:14:00,36.9,34.2,29.96,East,79,3.5,4.0,90,0.00,CLR,,0.01,14.0,WeatherDisplay:10.37,2013-03-20 18:14:00,
2013-03-20 18:19:00,36.8,34.4,29.97,East,88,6.9,6.9,91,0.00,OVC,,0.01,12.0,WeatherDisplay:10.37,2013-03-20 18:19:00,
2013-03-20 18:25:00,36.6,34.2,29.97,SE,126,9.2,9.2,91,0.00,OVC,,0.01,11.0,WeatherDisplay:10.37,2013-03-20 18:25:00,
2013-03-20 18:30:00,36.6,34.2,29.97,ESE,104,3.0,9.0,91,0.00,OVC,,0.01,9.0,WeatherDisplay:10.37,2013-03-20 18:30:00,
2013-03-20 18:35:00,36.5,34.4,29.97,East,90,5.0,5.0,92,0.00,OVC,,0.01,5.0,WeatherDisplay:10.37,2013-03-20 18:35:00,
2013-03-20 18:40:00,36.3,34.2,29.97,ENE,65,5.8,5.8,92,0.00,OVC,,0.01,5.0,WeatherDisplay:10.37,2013-03-20 18:40:00,
2013-03-20 18:45:00,36.2,34.1,29.97,East,96,3.5,3.5,92,0.00,OVC,,0.01,0.0,WeatherDisplay:10.37,2013-03-20 18:45:00,
2013-03-20 18:51:00,36.0,33.9,29.97,ESE,102,5.8,5.8,92,0.00,OVC,,0.01,0.0,WeatherDisplay:10.37,2013-03-20 18:51:00,
2013-03-20 18:56:00,35.9,33.8,29.97,East,82,4.6,4.6,92,0.00,OVC,,0.01,0.0,WeatherDisplay:10.37,2013-03-20 18:56:00,
2013-03-20 19:01:00,35.9,33.8,29.98,ENE,64,4.6,4.6,92,0.00,CLR,,0.01,0.0,WeatherDisplay:10.37,2013-03-20 19:01:00,
2013-03-20 19:06:00,35.8,34.0,29.98,East,85,4.6,4.6,93,0.00,CLR,,0.01,0.0,WeatherDisplay:10.37,2013-03-20 19:06:00,
2013-03-20 19:11:00,35.6,33.8,29.98,East,97,4.6,4.6,93,0.00,CLR,,0.01,0.0,WeatherDisplay:10.37,2013-03-20 19:11:00,
2013-03-20 19:16:00,35.5,33.7,29.98,SE,137,4.6,4.6,93,0.00,CLR,,0.01,0.0,WeatherDisplay:10.37,2013-03-20 19:16:00,
2013-03-20 19:21:00,35.3,33.5,29.98,East,97,3.5,3.5,93,0.00,CLR,,0.01,0.0,WeatherDisplay:10.37,2013-03-20 19:21:00,
2013-03-20 19:27:00,35.3,33.5,29.98,East,97,3.5,3.5,93,0.00,CLR,,0.01,0.0,WeatherDisplay:10.37,2013-03-20 19:27:00,
2013-03-20 19:32:00,35.2,33.4,29.98,East,80,4.6,4.6,93,0.00,CLR,,0.01,0.0,WeatherDisplay:10.37,2013-03-20 19:32:00,
2013-03-20 19:37:00,35.0,33.2,29.99,East,80,3.5,3.5,93,0.00,CLR,,0.01,0.0,WeatherDisplay:10.37,2013-03-20 19:37:00,
2013-03-20 19:42:00,34.9,33.1,29.99,East,95,5.8,5.8,93,0.00,CLR,,0.01,0.0,WeatherDisplay:10.37,2013-03-20 19:42:00,
2013-03-20 19:48:00,34.9,33.1,29.99,ENE,76,3.5,3.5,93,0.00,CLR,,0.01,0.0,WeatherDisplay:10.37,2013-03-20 19:48:00,
2013-03-20 19:53:00,34.7,33.2,29.99,ESE,104,2.3,2.3,94,0.00,CLR,,0.01,0.0,WeatherDisplay:10.37,2013-03-20 19:53:00,
2013-03-20 19:58:00,34.6,33.1,29.99,ESE,102,2.3,2.3,94,0.00,CLR,,0.01,0.0,WeatherDisplay:10.37,2013-03-20 19:58:00,
2013-03-20 20:03:00,34.4,32.9,29.99,East,93,3.5,3.5,94,0.00,CLR,,0.01,0.0,WeatherDisplay:10.37,2013-03-20 20:03:00,
2013-03-20 20:08:00,34.3,32.8,29.99,ENE,78,3.5,3.5,94,0.00,CLR,,0.01,0.0,WeatherDisplay:10.37,2013-03-20 20:08:00,
2013-03-20 20:13:00,34.1,32.6,29.99,East,83,4.6,4.6,94,0.00,CLR,,0.01,0.0,WeatherDisplay:10.37,2013-03-20 20:13:00,
2013-03-20 20:18:00,34.1,32.8,29.99,East,90,3.5,3.5,95,0.00,CLR,,0.01,0.0,WeatherDisplay:10.37,2013-03-20 20:18:00,
2013-03-20 20:23:00,34.0,32.7,30.00,East,89,3.5,3.5,95,0.00,CLR,,0.01,0.0,WeatherDisplay:10.37,2013-03-20 20:23:00,
2013-03-20 20:28:00,33.8,32.5,30.00,East,90,3.5,3.5,95,0.00,CLR,,0.01,0.0,WeatherDisplay:10.37,2013-03-20 20:28:00,
2013-03-20 20:33:00,33.8,32.5,30.00,East,100,2.3,2.3,95,0.00,CLR,,0.01,0.0,WeatherDisplay:10.37,2013-03-20 20:33:00,
2013-03-20 20:39:00,33.7,32.4,30.00,East,96,1.2,1.2,95,0.00,CLR,,0.01,0.0,WeatherDisplay:10.37,2013-03-20 20:39:00,
2013-03-20 20:44:00,33.5,32.2,30.00,ESE,103,3.5,3.5,95,0.00,CLR,,0.01,0.0,WeatherDisplay:10.37,2013-03-20 20:44:00,
2013-03-20 20:49:00,33.4,32.4,30.00,ESE,103,2.3,2.3,96,0.00,CLR,,0.01,0.0,WeatherDisplay:10.37,2013-03-20 20:49:00,
2013-03-20 20:54:00,33.2,32.2,30.01,ESE,103,2.3,2.3,96,0.00,CLR,,0.01,0.0,WeatherDisplay:10.37,2013-03-20 20:54:00,
2013-03-20 20:59:00,33.1,32.1,30.01,ESE,103,0.0,0.0,96,0.00,CLR,,0.01,0.0,WeatherDisplay:10.37,2013-03-20 20:59:00,
2013-03-20 21:05:00,32.9,31.9,30.01,ESE,104,0.0,0.0,96,0.00,CLR,,0.01,0.0,WeatherDisplay:10.37,2013-03-20 21:05:00,
2013-03-20 21:10:00,32.8,31.8,30.01,ESE,103,0.0,0.0,96,0.00,CLR,,0.01,0.0,WeatherDisplay:10.37,2013-03-20 21:10:00,
2013-03-20 21:15:00,32.8,31.8,30.01,ESE,103,0.0,0.0,96,0.00,CLR,,0.01,0.0,WeatherDisplay:10.37,2013-03-20 21:15:00,
2013-03-20 21:20:00,32.7,31.7,30.01,ESE,103,0.0,0.0,96,0.00,CLR,,0.01,0.0,WeatherDisplay:10.37,2013-03-20 21:20:00,
2013-03-20 21:25:00,32.7,31.7,30.02,ESE,103,0.0,0.0,96,0.00,CLR,,0.01,0.0,WeatherDisplay:10.37,2013-03-20 21:25:00,
2013-03-20 21:31:00,32.7,31.7,30.02,ESE,103,0.0,0.0,96,0.00,CLR,,0.01,0.0,WeatherDisplay:10.37,2013-03-20 21:31:00,
2013-03-20 21:36:00,32.5,31.7,30.02,ESE,104,2.3,2.3,97,0.00,CLR,,0.01,0.0,WeatherDisplay:10.37,2013-03-20 21:36:00,
2013-03-20 21:41:00,32.7,31.9,30.02,ESE,103,1.2,1.2,97,0.00,CLR,,0.01,0.0,WeatherDisplay:10.37,2013-03-20 21:41:00,
2013-03-20 21:46:00,32.7,31.9,30.02,ESE,103,0.0,0.0,97,0.00,CLR,,0.01,0.0,WeatherDisplay:10.37,2013-03-20 21:46:00,
2013-03-20 21:51:00,32.8,32.0,30.02,ESE,102,1.2,0.0,97,0.00,CLR,,0.01,0.0,WeatherDisplay:10.37,2013-03-20 21:51:00,
2013-03-20 21:56:00,32.9,32.4,30.03,ESE,102,1.2,1.2,98,0.00,CLR,,0.01,0.0,WeatherDisplay:10.37,2013-03-20 21:56:00,
2013-03-20 22:02:00,33.2,32.7,30.03,ESE,103,3.5,3.5,98,0.00,CLR,,0.01,0.0,WeatherDisplay:10.37,2013-03-20 22:02:00,
2013-03-20 22:07:00,33.2,32.7,30.03,ESE,102,0.0,0.0,98,0.00,CLR,,0.01,0.0,WeatherDisplay:10.37,2013-03-20 22:07:00,
2013-03-20 22:12:00,33.2,32.7,30.02,ESE,103,0.0,0.0,98,0.00,CLR,,0.01,0.0,WeatherDisplay:10.37,2013-03-20 22:12:00,
2013-03-20 22:17:00,33.2,32.7,30.02,ESE,102,2.3,2.3,98,0.00,CLR,,0.01,0.0,WeatherDisplay:10.37,2013-03-20 22:17:00,
2013-03-20 22:23:00,33.2,32.7,30.02,ESE,103,2.0,2.0,98,0.00,CLR,,0.01,0.0,WeatherDisplay:10.37,2013-03-20 22:23:00,
2013-03-20 22:28:00,33.2,32.7,30.03,East,92,2.3,2.3,98,0.00,CLR,,0.01,0.0,WeatherDisplay:10.37,2013-03-20 22:28:00,
2013-03-20 22:33:00,33.2,33.0,30.03,East,85,3.5,3.5,99,0.00,,,0.01,0.0,WeatherDisplay:10.37,2013-03-20 22:33:00,
2013-03-20 22:38:00,33.4,33.1,30.03,East,100,3.5,3.5,99,0.00,,,0.01,0.0,WeatherDisplay:10.37,2013-03-20 22:38:00,
2013-03-20 22:43:00,33.4,33.1,30.03,East,80,3.5,3.5,99,0.00,,,0.01,0.0,WeatherDisplay:10.37,2013-03-20 22:43:00,
2013-03-20 22:48:00,33.4,33.1,30.03,ENE,72,3.5,3.5,99,0.00,,,0.01,0.0,WeatherDisplay:10.37,2013-03-20 22:48:00,
2013-03-20 22:53:00,33.4,33.1,30.03,East,88,3.5,3.5,99,0.00,,,0.01,0.0,WeatherDisplay:10.37,2013-03-20 22:53:00,
2013-03-20 22:58:00,33.2,33.0,30.02,ESE,103,5.0,5.0,99,0.00,,,0.01,0.0,WeatherDisplay:10.37,2013-03-20 22:58:00,
2013-03-20 23:03:00,33.2,33.0,30.02,NE,56,3.5,3.5,99,0.00,,,0.01,0.0,WeatherDisplay:10.37,2013-03-20 23:03:00,
2013-03-20 23:08:00,33.1,32.9,30.02,East,99,3.5,3.5,99,0.00,,,0.01,0.0,WeatherDisplay:10.37,2013-03-20 23:08:00,
2013-03-20 23:13:00,32.9,32.7,30.02,East,96,4.6,4.6,99,0.00,,,0.01,0.0,WeatherDisplay:10.37,2013-03-20 23:13:00,
2013-03-20 23:18:00,32.7,32.5,30.02,ENE,68,3.5,3.5,99,0.00,,,0.01,0.0,WeatherDisplay:10.37,2013-03-20 23:18:00,
2013-03-20 23:24:00,32.7,32.5,30.02,NE,44,5.8,5.8,99,0.00,,,0.01,0.0,WeatherDisplay:10.37,2013-03-20 23:24:00,
2013-03-20 23:29:00,32.5,32.3,30.02,NNE,31,3.5,3.5,99,0.00,,,0.01,0.0,WeatherDisplay:10.37,2013-03-20 23:29:00,
2013-03-20 23:34:00,32.5,32.3,30.02,NE,55,3.5,3.5,99,0.00,,,0.01,0.0,WeatherDisplay:10.37,2013-03-20 23:34:00,
2013-03-20 23:39:00,32.4,32.2,30.02,NE,51,2.3,2.3,99,0.00,,,0.01,0.0,WeatherDisplay:10.37,2013-03-20 23:39:00,
2013-03-20 23:44:00,32.2,32.0,30.02,NE,54,3.0,3.0,99,0.00,,,0.01,0.0,WeatherDisplay:10.37,2013-03-20 23:44:00,
2013-03-20 23:50:00,32.1,31.9,30.02,NE,52,3.5,3.5,99,0.00,,,0.01,0.0,WeatherDisplay:10.37,2013-03-20 23:50:00,
2013-03-20 23:55:00,31.9,31.7,30.02,NNE,32,3.5,3.5,99,0.00,,,0.01,0.0,WeatherDisplay:10.37,2013-03-20 23:55:00,